Regional Weather Roundup
Issued by NWS

Home | Current Version | Previous Version | Text Only | Print | Product List | Glossary On
Versions: 1 2 3 4 5 6 7 8 9 10 11 12 13 14 15 16 17 18 19 20 21 22 23 24 25 26 27 28 29 30 31 32 33 34 35 36 37 38 39 40 41 42 43 44 45 46 47 48 49 50
231
ASUS44 KJAN 212303
RWRMS

MISSISSIPPI HOURLY WEATHER ROUNDUP
NATIONAL WEATHER SERVICE JACKSON MS
500 PM CST SUN DEC 21 2014

NOTE: "FAIR: INDICATES FEW OR NO CLOUDS BELOW 12,000 FEET WITH NO
SIGNIFICANT WEATHER AND/OR OBSTRUCTIONS TO VISIBILITY.

MSZ001>002-007>008-010>013-018>021-025>028-034>036-220000-
NORTHWEST MISSISSIPPI

CITY           SKY/WX    TMP DP  RH WIND       PRES   REMARKS
CLARKSDALE     FAIR      54  37  54 CALM      30.02F
CLEVELAND      FAIR      53  42  65 S3        30.00S
GREENWOOD      CLEAR     56  42  59 E5        30.00F
GREENVILLE     CLEAR     54  41  61 SE3       29.99F
GRENADA        FAIR      52  43  71 E7        30.01F
OLIVE BRANCH   PTCLDY    50  34  53 CALM      30.02S
OXFORD         FAIR      50  36  57 SE3       30.03S
TUNICA         CLEAR     52  36  54 CALM      30.02F
$$

MSZ003>006-009-014>017-022>024-029>033-037>039-220000-
NORTHEAST MISSISSIPPI

CITY           SKY/WX    TMP DP  RH WIND       PRES   REMARKS
COLUMBUS AFB   PTCLDY    51  44  76 CALM      30.05F
CORINTH        FAIR      50  37  62 S7        30.04R
GOLDN TRIANGLE MOCLDY    50  43  76 NE5       30.04F
STARKVILLE     MOCLDY    50  45  81 E3        30.04F
TUPELO         MOCLDY    51  40  65 S5        30.04F
$$

MSZ040-058-220000-
CENTRAL MISSISSIPPI

CITY           SKY/WX    TMP DP  RH WIND       PRES   REMARKS
JACKSON INTL   PTCLDY    53  46  77 SE7       30.01S
JACKSON HAWKNS CLEAR     56  45  66 SE8       30.00F
MERIDIAN KEY   CLOUDY    49  46  90 E6        30.05R
MERIDIAN NAS   CLOUDY    49  46  90 CALM      30.05F FOG
RAYMOND        FAIR      57  54  88 SE6       29.99F
VICKSBURG      CLEAR     57  48  72 E6        29.98F
$$

MSZ059>079-220000-
SOUTH MISSISSIPPI

CITY           SKY/WX    TMP DP  RH WIND       PRES   REMARKS
HATTIESBURG    CLOUDY    55  50  83 N3        30.03S
MCCOMB         CLOUDY    57  49  74 SE5       29.99F
NATCHEZ        CLEAR     59  48  67 SE6       29.99S
PINE BELT      CLOUDY    52  46  82 E3        30.03F
$$

MSZ080>082-220000-
COASTAL MISSISSIPPI

CITY           SKY/WX    TMP DP  RH WIND       PRES   REMARKS
BAY ST LOUIS   MOCLDY    54  48  82 CALM      30.00F
BILOXI         CLOUDY    58  54  89 E5        30.00S
PASCAGOULA     CLOUDY    57  53  86 NE3       30.01S
GULFPORT       CLOUDY    58  53  84 E6        30.00F
$$



USA.gov is the U.S. government's official web portal to all federal, state and local government web resources and services.